Location: Newark
(7.0858°N, 171.3717°E)
Time: 04:40:36
(UTC+00:00)

Vanguard 2 - Pass Details

Date: 25 November 2020
Orbit: 553 x 2937 km, 32.9° (Epoch: 26 January)

Event Time Altitude Azimuth Distance (km) Brightness Sun altitude
Rises 16:44:24 0° 212° (SSW) 6,566 12.2 -25.2°
Reaches altitude 10° 16:51:19 10° 196° (SSW) 5,209 11.8 -23.6°
Maximum altitude 17:00:05 18° 159° (SSE) 3,933 11.6 -21.6°
Drops below altitude 10° 17:06:54 10° 120° (ESE) 3,948 12.3 -20.0°
Sets 17:10:58 0° 102° (ESE) 4,510 13.1 -19.0°
